Location: *
(40.9167°N, 9.5000°E)
Time: 09:13:33
(UTC+00:00)

Abrixas rocket - Pass Details

Date: 09 April 2020
Orbit: 344 x 351 km, 48.4° (Epoch: 03 June)

Event Time Altitude Azimuth Distance (km) Brightness Sun altitude
Rises 19:53:20 0° 301° (WNW) 2,169 7.4 -21.4°
Reaches altitude 10° 19:55:22 10° 303° (WNW) 1,327 5.9 -21.7°
Enters shadow 19:57:24 39° 317° (NW) 552 3.3 -22.0°
